Wind_Speed
47 35 28 29 34 34 46 55 33 58 48 49 36 28 31 34 39 39 34 30 25 21 22 25 25 25 24 26 29 30 30 34 37 38 40 40 41 44 43 38 39 41 39 34
45 48 45 42 46 45 43 42 44 55 62 46 30 28 29 34 40 35 31 24 22 23 24 23 24 26 27 30 29 32 36 39 42 47 47 44 41 39 40 36 36 40 34 36
40 39 37 31 70 57 58 55 50 53 61 49 41 38 41 40 40 35 30 26 24 22 22 24 28 31 33 35 35 35 36 40 40 41 41 40 41 40 39 40 40 40 40 40
24 19 10 39 43 35 33 42 52 54 56 48 44 44 44 44 32 33 35 29 28 30 27 25 29 34 35 35 34 35 37 39 41 42 41 43 45 44 42 42 42 41 39 38
11 18 28 37 39 35 36 49 45 47 47 44 44 50 54 56 51 35 34 35 28 23 29 29 29 32 34 36 37 39 38 39 42 44 46 47 46 44 43 43 43 42 41 37
17 6 9 30 23 21 19 44 33 35 48 46 47 51 52 53 56 41 31 31 30 29 33 36 39 40 35 35 34 36 39 41 42 42 42 40 38 38 36 36 39 43 44 43
43 21 24 37 21 12 21 27 20 21 32 48 51 55 45 35 38 37 32 29 31 31 31 31 31 31 32 35 38 40 41 41 39 36 37 38 39 39 38 38 38 39 42 47
32 22 19 27 24 32 38 39 31 18 15 19 33 30 28 29 28 30 29 30 29 25 28 32 34 34 35 38 39 39 39 39 37 36 37 38 40 41 42 41 40 40 44 47
29 31 34 28 30 30 29 28 23 16 16 18 22 27 28 28 27 26 27 25 25 28 30 30 34 38 39 39 38 38 39 38 37 37 38 38 40 41 41 42 42 40 43 49
34 39 37 35 30 20 20 21 24 24 24 20 22 25 26 22 21 23 24 23 24 27 31 33 35 36 36 36 36 38 38 38 38 40 40 42 42 42 41 41 42 41 42 46
38 36 27 34 27 27 27 28 29 27 22 17 18 22 23 23 22 20 21 23 27 30 32 31 30 32 34 35 38 39 39 40 40 40 40 40 40 40 40 40 39 40 41 43
41 38 39 32 27 33 31 30 27 23 21 22 22 23 21 19 18 21 24 27 30 31 30 30 31 34 36 38 38 39 39 38 37 38 39 39 40 43 42 42 40 40 42 43
30 29 29 29 25 21 21 22 20 20 20 19 19 18 18 18 21 24 27 28 28 29 31 32 33 34 37 38 36 34 34 36 38 40 43 44 46 45 45 41 38 40 41 42
23 23 23 22 19 20 22 21 18 17 17 16 16 17 18 21 24 25 26 26 27 29 31 33 34 35 35 31 31 34 37 40 42 45 45 47 49 52 51 47 45 36 36 36
16 17 17 14 18 23 24 24 23 20 17 16 17 20 23 24 24 25 25 26 28 31 32 33 33 33 32 32 35 37 40 43 44 45 46 49 49 47 46 42 43 43 36 34
15 20 21 22 20 19 19 20 20 20 21 22 21 22 22 23 22 23 25 29 32 33 34 34 34 31 32 35 38 41 43 45 46 46 49 50 49 48 48 47 43 42 43 36
19 22 20 18 18 19 20 20 21 21 21 21 22 23 20 19 21 24 26 29 30 31 31 31 30 32 34 37 40 43 45 46 47 48 50 52 51 55 52 46 44 40 39 36
21 20 20 20 22 23 23 23 23 25 25 22 20 20 20 21 23 25 27 27 27 28 29 30 32 34 37 40 43 44 45 45 45 48 50 50 53 46 42 38 39 38 33 33
30 27 26 27 28 27 27 28 26 24 21 21 21 20 21 23 25 27 27 26 28 29 31 33 34 36 38 40 41 41 41 41 43 41 42 46 40 37 34 29 30 31 30 31
21 23 22 26 29 27 25 23 22 23 23 22 21 21 22 24 25 26 25 27 29 30 30 32 34 36 37 37 37 36 37 39 39 33 33 31 30 28 24 24 24 26 27 30
12 14 16 24 26 28 28 26 26 25 23 21 22 23 24 26 24 24 25 26 26 28 29 31 33 34 35 35 34 34 34 37 30 28 29 29 25 20 15 12 12 15 23 28
13 12 15 15 17 25 29 26 26 25 22 22 21 22 25 22 21 22 22 23 23 24 26 28 31 32 31 30 30 30 33 28 24 21 24 27 25 19 15 14 16 20 25 27
15 18 16 17 20 21 22 24 24 22 20 20 20 18 17 17 18 19 19 19 23 26 28 30 32 31 28 27 27 27 29 22 21 19 23 29 29 24 20 20 23 24 26 28
15 16 14 12 12 13 14 15 16 15 16 16 15 15 15 15 16 18 19 22 26 27 28 30 32 28 25 25 25 27 26 19 18 23 27 25 22 18 14 15 20 24 28 31
12 13 15 14 13 15 16 14 13 13 14 14 14 15 16 16 16 18 21 24 25 26 28 29 27 23 22 23 22 24 21 18 19 21 20 19 14 9 5 5 5 5 9 18
16 16 16 16 16 17 16 15 15 16 16 15 16 17 18 17 18 19 22 23 24 26 28 26 21 19 19 19 18 20 16 15 13 13 13 11 8 6 5 1 5 9 16 14
19 18 17 18 17 17 17 17 17 18 20 20 20 18 18 18 18 19 21 22 24 25 25 21 18 16 16 15 13 16 14 12 11 8 8 8 7 6 2 4 8 12 16 20
Wind_Direction
241 240 236 242 245 237 232 241 228 253 252 259 266 266 242 230 216 214 211 206 217 233 244 252 265 274 277 281 288 287 285 288 294 295 292 290 290 292 291 293 289 284 277 278
240 241 246 249 246 244 246 247 250 251 255 257 256 239 233 225 215 207 212 227 237 247 257 269 277 282 287 294 290 288 287 292 294 295 297 296 294 293 294 290 286 273 282 285
243 247 251 243 250 249 256 253 250 248 255 255 242 241 231 217 217 220 231 234 247 256 264 276 285 289 292 290 288 286 287 287 286 285 285 286 287 287 285 284 279 280 284 284
237 258 230 246 250 254 252 259 256 251 251 252 245 236 229 223 227 222 227 238 248 252 252 265 280 281 280 280 280 281 280 281 282 283 287 290 291 291 291 289 286 284 282 278
220 224 252 259 255 245 236 261 258 244 244 239 235 226 229 228 228 238 244 245 251 261 275 274 275 277 281 274 271 273 275 279 282 285 287 290 291 292 291 287 283 280 279 275
224 210 217 273 275 267 241 252 254 246 241 233 230 223 227 226 230 239 252 267 265 258 261 264 266 263 258 262 268 275 281 286 290 293 295 297 297 296 293 288 286 282 276 270
239 242 251 251 266 249 199 261 272 262 253 238 239 247 240 243 266 273 273 261 262 262 259 251 252 259 266 271 282 289 292 294 296 297 297 298 296 293 291 289 284 280 277 273
221 215 241 244 248 238 266 261 264 259 245 245 245 249 251 249 253 255 256 255 248 243 246 253 263 274 285 292 294 294 295 296 295 294 295 293 291 290 288 284 280 280 277 274
212 230 236 259 268 257 253 257 253 256 259 260 251 249 251 248 246 244 235 236 244 254 266 281 288 291 292 292 292 294 295 293 290 294 298 298 298 298 295 285 280 279 275 271
228 239 250 248 248 246 236 239 247 260 272 259 249 245 243 239 227 227 240 253 265 275 283 288 289 290 291 295 295 294 293 294 297 297 295 296 297 295 293 286 277 278 277 277
227 233 237 237 230 222 231 256 267 268 265 248 232 229 231 234 239 249 258 268 277 284 286 286 286 290 295 294 293 293 295 296 294 293 295 296 297 294 289 284 282 277 276 275
244 248 243 240 249 262 265 261 258 256 242 227 222 222 228 239 252 265 275 282 284 282 281 282 284 289 295 297 297 296 295 293 293 294 295 297 298 298 293 285 279 277 275 272
254 254 255 258 256 253 252 245 237 228 219 223 226 233 242 258 268 275 281 281 280 281 283 283 282 290 299 296 292 294 297 298 298 299 302 301 299 298 295 288 275 273 275 268
248 248 250 252 255 246 232 222 215 219 226 232 243 256 265 273 280 281 281 283 283 284 285 283 282 289 294 289 294 299 301 301 300 298 298 298 297 297 295 286 279 272 269 267
240 245 245 232 205 203 205 213 226 241 253 251 263 273 279 282 282 285 287 287 288 287 286 285 284 290 286 288 295 299 300 300 299 299 299 299 299 297 294 291 280 271 269 263
213 210 228 226 230 235 237 239 240 242 254 266 267 270 275 280 280 283 289 293 292 290 290 288 287 286 286 292 296 297 297 298 301 303 303 302 299 295 292 286 279 271 261 263
214 230 229 235 242 244 246 250 253 255 255 257 265 278 279 283 292 297 297 298 296 293 291 289 288 289 292 294 295 296 297 299 302 303 303 303 300 297 292 280 268 265 260 249
240 243 243 244 244 245 241 242 246 252 258 262 265 271 279 287 294 295 297 294 296 298 295 292 292 293 295 296 296 297 300 302 304 307 307 305 303 297 294 277 260 256 257 232
247 250 244 242 242 240 241 243 244 239 236 247 259 271 281 289 291 290 290 292 295 295 293 293 294 294 294 294 296 299 301 303 306 308 308 311 308 301 292 280 265 252 248 223
241 240 240 237 236 234 233 227 221 231 240 255 263 272 280 283 290 291 293 295 297 298 297 299 300 299 299 299 301 304 304 305 308 305 311 318 319 300 290 276 261 254 234 215
245 240 236 233 232 231 233 235 238 243 257 257 265 271 272 285 293 292 294 295 299 303 305 307 307 305 304 303 305 305 305 310 303 303 306 309 312 319 309 280 254 226 212 222
244 237 237 238 236 234 235 239 242 249 250 260 263 273 279 282 284 290 294 297 301 304 309 316 317 314 307 305 304 307 313 307 300 300 309 310 302 299 293 259 235 221 225 235
238 238 248 240 230 226 226 233 236 241 252 264 270 266 270 278 285 287 290 295 303 308 311 318 322 316 309 307 309 310 316 303 297 292 303 304 305 292 279 271 267 264 256 248
245 248 235 224 227 228 226 229 238 248 255 256 260 264 271 277 280 281 291 303 310 313 318 320 320 316 311 312 314 318 319 295 284 295 310 307 302 293 289 274 268 263 259 256
249 233 229 230 229 239 241 239 236 240 250 256 263 268 270 274 273 284 300 310 312 318 321 320 317 316 314 316 318 326 323 310 292 303 312 309 306 292 258 274 266 255 254 231
241 239 236 237 234 237 237 237 241 248 249 257 264 266 269 269 278 295 310 312 316 323 322 319 317 316 314 317 323 336 332 325 313 308 312 317 317 304 283 85 88 100 92 94
238 238 242 242 243 247 248 247 248 252 256 260 260 259 261 268 284 304 311 316 322 323 321 321 319 317 316 320 320 340 340 328 323 316 327 355 345 10 26 86 89 87 91 92
Height
3007 3011 3016 3017 3023 3024 3021 3019 3026 3009 3020 3023 3027 3031 3033 3035 3037 3038 3040 3042 3044 3046 3048 3051 3051 3051 3051 3051 3050 3050 3049 3050 3049 3049 3047 3046 3044 3043 3041 3040 3039 3036 3035 3035
3000 3005 3006 3007 3011 3009 3009 3013 3015 3017 3009 3019 3024 3025 3029 3030 3031 3033 3034 3036 3037 3038 3039 3041 3041 3042 3042 3041 3041 3041 3040 3037 3037 3035 3034 3032 3031 3029 3028 3027 3028 3028 3028 3027
2990 2999 2998 2994 2980 2995 2996 3001 3007 3003 2998 3010 3014 3017 3019 3021 3022 3025 3026 3028 3029 3029 3029 3032 3032 3030 3030 3029 3029 3030 3029 3027 3027 3026 3026 3023 3019 3018 3018 3017 3017 3017 3017 3016
2980 2987 2981 2974 2975 2980 2983 2987 2991 2992 2993 3000 3004 3007 3011 3013 3017 3016 3014 3017 3017 3018 3020 3022 3025 3023 3021 3021 3020 3020 3021 3018 3015 3013 3013 3011 3009 3010 3009 3007 3006 3006 3006 3005
2973 2974 2972 2967 2965 2971 2973 2968 2976 2979 2986 2991 2991 2993 2995 2997 3001 3005 3006 3006 3008 3009 3013 3014 3015 3015 3011 3013 3012 3012 3010 3008 3006 3003 2999 2996 2996 2996 2995 2993 2993 2993 2994 2994
2966 2965 2962 2953 2956 2962 2967 2958 2965 2972 2975 2980 2981 2980 2982 2986 2989 2993 2995 2996 2996 2998 3000 3002 3003 3003 3000 3002 3003 3002 2999 2998 2996 2992 2989 2987 2985 2983 2982 2979 2979 2979 2978 2981
2955 2957 2950 2951 2952 2958 2962 2954 2958 2963 2966 2969 2971 2973 2980 2978 2979 2981 2982 2984 2987 2989 2991 2994 2996 2997 2994 2994 2993 2990 2987 2986 2984 2980 2976 2974 2973 2971 2969 2968 2966 2966 2965 2965
2948 2948 2945 2943 2947 2948 2947 2951 2956 2959 2961 2965 2968 2969 2971 2972 2972 2973 2977 2978 2980 2982 2985 2987 2988 2986 2984 2982 2979 2977 2976 2975 2973 2970 2968 2965 2960 2958 2956 2955 2953 2954 2954 2952
2932 2929 2931 2933 2936 2938 2943 2949 2952 2954 2957 2960 2960 2960 2962 2963 2965 2968 2971 2973 2975 2975 2977 2975 2974 2974 2973 2971 2969 2967 2965 2963 2961 2959 2955 2950 2947 2944 2942 2942 2940 2938 2940 2939
2922 2921 2926 2928 2932 2934 2938 2942 2945 2948 2950 2952 2952 2953 2954 2957 2959 2962 2964 2966 2966 2966 2968 2966 2963 2962 2960 2958 2956 2955 2953 2951 2948 2945 2942 2939 2935 2934 2930 2931 2929 2926 2926 2925
2910 2914 2918 2921 2927 2931 2933 2935 2937 2939 2941 2942 2944 2946 2949 2952 2954 2956 2959 2960 2959 2959 2959 2957 2955 2953 2951 2948 2946 2945 2942 2939 2936 2934 2931 2927 2923 2922 2919 2918 2916 2914 2913 2913
2903 2910 2914 2918 2922 2925 2927 2930 2931 2933 2933 2935 2938 2941 2943 2947 2949 2951 2952 2952 2951 2950 2949 2949 2945 2944 2941 2938 2935 2932 2931 2928 2926 2923 2920 2915 2912 2909 2908 2904 2903 2902 2901 2900
2899 2905 2908 2911 2913 2916 2919 2922 2925 2928 2931 2933 2935 2938 2940 2941 2941 2943 2944 2944 2942 2941 2940 2938 2936 2933 2930 2928 2926 2923 2921 2919 2916 2911 2905 2901 2900 2896 2892 2891 2890 2888 2888 2888
2894 2897 2899 2903 2907 2910 2913 2916 2919 2922 2925 2927 2929 2932 2934 2935 2935 2935 2934 2932 2932 2931 2929 2927 2925 2924 2921 2918 2915 2912 2909 2907 2903 2899 2893 2891 2886 2881 2877 2875 2874 2876 2876 2876
2891 2892 2895 2898 2902 2905 2908 2911 2913 2916 2918 2921 2923 2925 2926 2927 2926 2927 2927 2924 2922 2921 2919 2916 2914 2913 2911 2909 2906 2902 2897 2896 2891 2887 2882 2877 2871 2867 2863 2860 2858 2859 2863 2865
2887 2888 2890 2893 2897 2901 2903 2906 2909 2913 2915 2916 2917 2917 2920 2920 2920 2919 2917 2915 2913 2910 2908 2907 2905 2903 2899 2898 2894 2891 2887 2883 2878 2873 2867 2862 2856 2852 2848 2845 2844 2843 2846 2852
2882 2883 2886 2889 2893 2895 2899 2901 2904 2907 2910 2910 2911 2912 2911 2912 2912 2910 2908 2906 2903 2901 2899 2897 2896 2894 2889 2886 2883 2880 2875 2870 2865 2859 2853 2846 2840 2834 2829 2826 2826 2827 2830 2837
2875 2877 2880 2883 2886 2889 2892 2895 2898 2901 2903 2904 2904 2905 2905 2905 2904 2902 2900 2898 2896 2894 2892 2889 2886 2882 2879 2875 2872 2867 2862 2857 2851 2845 2838 2830 2822 2815 2810 2808 2809 2812 2816 2823
2867 2871 2873 2876 2878 2881 2884 2887 2891 2894 2896 2897 2898 2899 2899 2898 2896 2894 2892 2890 2889 2887 2884 2881 2877 2873 2870 2866 2861 2856 2851 2846 2840 2834 2827 2818 2808 2803 2798 2796 2797 2801 2806 2812
2860 2863 2867 2869 2871 2875 2878 2882 2885 2887 2889 2891 2891 2892 2891 2891 2888 2887 2884 2883 2881 2878 2875 2871 2867 2864 2859 2855 2850 2845 2840 2835 2830 2824 2819 2812 2803 2797 2792 2791 2791 2793 2797 2804
2857 2859 2861 2863 2866 2869 2872 2876 2878 2881 2882 2884 2885 2884 2885 2883 2881 2879 2877 2876 2874 2871 2867 2863 2859 2854 2849 2844 2840 2835 2831 2826 2821 2817 2814 2808 2802 2795 2790 2787 2787 2789 2793 2799
2854 2855 2856 2858 2859 2862 2866 2869 2871 2873 2876 2877 2877 2877 2877 2875 2874 2873 2872 2870 2868 2865 2860 2856 2851 2845 2840 2836 2832 2828 2823 2818 2815 2812 2809 2805 2800 2796 2791 2788 2787 2788 2790 2792
2850 2851 2852 2853 2855 2857 2859 2862 2865 2867 2869 2869 2870 2869 2870 2870 2869 2868 2867 2865 2862 2858 2853 2848 2843 2838 2833 2829 2825 2821 2817 2813 2810 2808 2804 2800 2796 2792 2789 2787 2786 2785 2785 2786
2845 2847 2848 2849 2851 2853 2855 2857 2859 2861 2862 2863 2864 2864 2864 2864 2864 2862 2861 2858 2855 2850 2845 2840 2836 2831 2827 2823 2819 2816 2811 2807 2805 2803 2799 2794 2790 2786 2782 2780 2777 2775 2774 2775
2842 2843 2844 2846 2848 2850 2851 2853 2854 2856 2857 2858 2858 2859 2859 2859 2859 2857 2855 2852 2848 2844 2839 2835 2830 2826 2822 2819 2816 2812 2807 2803 2800 2799 2795 2792 2788 2785 2782 2780 2776 2772 2767 2767
2839 2840 2841 2842 2843 2844 2846 2848 2850 2851 2852 2852 2853 2854 2854 2854 2854 2852 2849 2846 2842 2838 2834 2829 2825 2822 2819 2816 2813 2809 2805 2802 2799 2797 2794 2791 2789 2787 2785 2782 2779 2775 2771 2769
2835 2836 2837 2838 2839 2840 2841 2843 2844 2845 2846 2847 2847 2848 2849 2849 2848 2846 2844 2840 2837 2833 2829 2824 2821 2818 2816 2813 2811 2808 2804 2802 2799 2797 2795 2793 2791 2789 2788 2786 2783 2781 2778 2776